{"data":{"norad_id":58957,"epoch":"2026-05-25T04:54:11.022336Z","epoch_age_seconds":57639,"freshness":"FRESH","line1":"1 58957U 24028C   26145.20429424 -.00000041  00000+0  40910-4 0  9998","line2":"2 58957  39.9884 149.5478 0011173 121.9968 238.1866 13.70767089113900","mean_motion":13.70767089,"eccentricity":0.0011173,"inclination_deg":39.9884,"raan_deg":149.5478,"arg_perigee_deg":121.9968,"mean_anomaly_deg":238.1866,"bstar":4.091e-5,"rev_number":11390,"period_min":105.05066918775,"perigee_km":988.57831439083,"apogee_km":1005.0583896204,"semimajor_km":7374.9553520056,"source":"CELESTRAK","updated_at":"2026-05-25T13:38:01.087842Z"}}